This demonstration page uses our WeatherBlox Daily Observations layout. Learn more.

Hourly Observations for January 20, 2020

Temp ( °F °C ) Dew Point ( °F °C ) Humidity (%) Winds ( mph kmh ) Pressure ( in mb ) Visibility ( mi km ) Precip ( " mm )
12:15 am 00:15 Clear 14 -10 11 -11.6 88 88 ESE 7 11 30.68 1039 10 16.0934 0 0
12:35 am 00:35 Clear 13 -10.5 10 -12 89 89 ESE 6 9 30.68 1039 10 16.0934 0 0
12:55 am 00:55 Clear 13 -10.4 10 -12 88 88 ESE 6 9 30.68 1039 10 16.0934 0 0
1:15 am 01:15 Clear 13 -10.7 10 -12.2 89 89 ESE 7 11 30.67 1039 10 16.0934 0 0
1:35 am 01:35 Clear 13 -10.7 10 -12.3 88 88 SE 8 13 30.66 1038 10 16.0934 0 0
1:55 am 01:55 Clear 13 -10.8 10 -12.3 89 89 SE 7 11 30.67 1038 10 16.0934 0 0
2:15 am 02:15 Clear 12 -11 10 -12.5 89 89 E 7 11 30.67 1039 10 16.0934 0 0
2:35 am 02:35 Clear 12 -11.2 9 -12.7 89 89 E 7 11 30.67 1039 10 16.0934 0 0
2:55 am 02:55 Clear 12 -11.2 9 -12.6 90 90 E 8 13 30.67 1039 10 16.0934 0 0
3:15 am 03:15 Clear 12 -11.1 10 -12.5 90 90 E 9 15 30.67 1039 10 16.0934 0 0
3:35 am 03:35 Clear 12 -11.2 9 -12.6 90 90 E 7 11 30.67 1039 10 16.0934 0 0
3:55 am 03:55 Clear 12 -11.1 9 -12.7 88 88 E 7 11 30.67 1039 10 16.0934 0 0
4:15 am 04:15 Clear 11 -11.6 8 -13.1 89 89 E 7 11 30.67 1039 10 16.0934 0 0
4:35 am 04:35 Clear 11 -11.6 9 -13 89 89 E 7 11 30.68 1039 10 16.0934 0 0
4:55 am 04:55 Clear 11 -11.8 9 -13 91 91 E 9 15 30.68 1039 10 16.0934 0 0
5:15 am 05:15 Clear 11 -11.9 9 -13 92 92 E 9 15 30.69 1039 10 16.0934 0 0
5:35 am 05:35 Clear 10 -12 8 -13.2 91 91 E 8 13 30.69 1039 10 16.0934 0 0
5:55 am 05:55 Clear 10 -12.2 8 -13.5 90 90 ENE 7 11 30.7 1040 10 16.0934 0 0
6:15 am 06:15 Clear 10 -12.5 8 -13.6 92 92 E 9 15 30.7 1040 10 16.0934 0 0
6:35 am 06:35 Clear 9 -12.7 7 -14 90 90 E 8 13 30.71 1040 10 16.0934 0 0
6:55 am 06:55 Clear 9 -13 6 -14.2 91 91 E 9 15 30.73 1041 10 16.0934 0 0
7:15 am 07:15 Clear 9 -13 6 -14.5 89 89 E 8 13 30.74 1041 10 16.0934 0 0
7:35 am 07:35 Clear 8 -13.4 5 -14.8 89 89 ENE 8 13 30.74 1041 10 16.0934 0 0
7:55 am 07:55 Clear 8 -13.5 5 -15 89 89 ENE 10 17 30.75 1041 10 16.0934 0 0
8:15 am 08:15 Sunny 8 -13.5 5 -15 89 89 ENE 10 17 30.78 1042 10 16.0934 0 0
8:35 am 08:35 Sunny 8 -13.4 5 -15.2 86 86 ENE 9 15 30.77 1042 10 16.0934 0 0
8:55 am 08:55 Sunny 9 -13 4 -15.6 81 81 ENE 12 19 30.78 1042 10 16.0934 0 0
9:15 am 09:15 Sunny 9 -13 3 -16 78 78 E 9 15 30.79 1043 10 16.0934 0 0
9:35 am 09:35 Sunny 10 -12.4 4 -15.4 79 79 ENE 9 15 30.78 1042 10 16.0934 0 0
9:55 am 09:55 Sunny 10 -12.2 4 -15.6 76 76 E 10 17 30.78 1042 10 16.0934 0 0
10:15 am 10:15 Sunny 11 -11.9 5 -15.1 77 77 E 10 17 30.79 1043 10 16.0934 0 0
10:35 am 10:35 Sunny 11 -11.5 5 -15 76 76 ENE 8 13 30.79 1043 10 16.0934 0 0
10:55 am 10:55 Sunny 12 -11.2 5 -14.8 75 75 ENE 6 9 30.79 1043 10 16.0934 0 0
11:15 am 11:15 Sunny 13 -10.7 6 -14.2 76 76 E 5 7 30.78 1042 10 16.0934 0 0
11:35 am 11:35 Sunny 14 -10 7 -13.7 75 75 ENE 5 7 30.76 1042 10 16.0934 0 0
11:55 am 11:55 Sunny 15 -9.5 8 -13.4 74 74 ENE 5 7 30.74 1041 10 16.0934 0 0
12:15 pm 12:15 Sunny 16 -9.1 9 -12.9 74 74 NE 5 7 30.74 1041 10 16.0934 0 0
12:35 pm 12:35 Sunny 17 -8.5 10 -12.3 74 74 ENE 7 11 30.72 1040 10 16.0934 0 0
12:55 pm 12:55 Sunny 18 -8 11 -11.7 75 75 ENE 8 13 30.72 1040 10 16.0934 0 0
1:15 pm 13:15 Sunny 18 -7.6 11 -11.5 74 74 ENE 8 13 30.69 1039 10 16.0934 0 0
1:35 pm 13:35 Sunny 19 -7.3 12 -11.2 74 74 E 8 13 30.69 1039 10 16.0934 0 0
1:55 pm 13:55 Sunny 19 -7.2 12 -11 75 75 E 8 13 30.68 1039 10 16.0934 0 0
2:15 pm 14:15 Sunny 20 -6.7 13 -10.8 73 73 E 6 9 30.67 1039 10 16.0934 0 0
2:35 pm 14:35 Sunny 20 -6.8 13 -10.6 75 75 ESE 3 6 30.67 1039 10 16.0934 0 0
2:55 pm 14:55 Sunny 20 -6.9 13 -10.8 74 74 E 6 9 30.67 1038 10 16.0934 0 0
3:15 pm 15:15 Sunny 20 -6.7 13 -10.6 74 74 E 7 11 30.66 1038 10 16.0934 0 0
3:35 pm 15:35 Sunny 20 -6.6 13 -10.3 75 75 ESE 6 9 30.67 1039 10 16.0934 0 0
3:55 pm 15:55 Sunny 20 -6.7 13 -10.5 75 75 ESE 3 6 30.66 1038 10 16.0934 0 0
4:15 pm 16:15 Sunny 20 -6.7 13 -10.4 75 75 ESE 5 7 30.67 1039 10 16.0934 0 0
4:35 pm 16:35 Sunny 19 -7 13 -10.6 76 76 E 5 7 30.67 1038 10 16.0934 0 0
4:55 pm 16:55 Sunny 19 -7 13 -10.5 76 76 E 6 9 30.67 1038 10 16.0934 0 0
5:15 pm 17:15 Sunny 19 -7.5 13 -10.7 78 78 E 6 9 30.67 1039 10 16.0934 0 0
5:35 pm 17:35 Sunny 18 -8 13 -10.8 81 81 ESE 6 9 30.68 1039 10 16.0934 0 0
5:55 pm 17:55 Clear 16 -8.7 12 -11 84 84 ESE 6 9 30.68 1039 10 16.0934 0 0
6:15 pm 18:15 Clear 16 -9 12 -11.2 84 84 ESE 6 9 30.69 1039 10 16.0934 0 0
6:35 pm 18:35 Clear 15 -9.2 11 -11.5 84 84 SE 5 7 30.69 1039 10 16.0934 0 0
6:55 pm 18:55 Clear 15 -9.7 11 -11.9 84 84 SE 6 9 30.69 1039 10 16.0934 0 0
7:15 pm 19:15 Clear 14 -10.1 10 -12.1 85 85 SE 6 9 30.71 1040 10 16.0934 0 0
7:35 pm 19:35 Clear 13 -10.5 10 -12.5 85 85 SE 6 9 30.71 1040 10 16.0934 0 0
7:55 pm 19:55 Clear 13 -10.7 9 -12.8 85 85 SE 3 6 30.72 1040 10 16.0934 0 0
8:15 pm 20:15 Clear 11 -11.4 8 -13.2 87 87 ESE 3 6 30.72 1040 10 16.0934 0 0
8:35 pm 20:35 Clear 11 -11.4 8 -13.1 87 87 SE 3 6 30.72 1040 10 16.0934 0 0
8:55 pm 20:55 Clear 11 -11.5 8 -13.4 86 86 SE 5 7 30.71 1040 10 16.0934 0 0
9:15 pm 21:15 Clear 11 -11.6 8 -13.5 86 86 SE 6 9 30.71 1040 10 16.0934 0 0
9:35 pm 21:35 Clear 11 -11.7 8 -13.6 86 86 SSE 5 7 30.71 1040 10 16.0934 0 0
9:55 pm 21:55 Clear 10 -12 7 -13.8 87 87 SSE 6 9 30.7 1040 10 16.0934 0 0
10:15 pm 22:15 Clear 10 -12 7 -14 85 85 SE 7 11 30.69 1039 10 16.0934 0 0
10:35 pm 22:35 Clear 10 -12.2 6 -14.2 85 85 SE 7 11 30.69 1039 10 16.0934 0 0
10:55 pm 22:55 Clear 10 -12.3 6 -14.3 85 85 SSE 5 7 30.68 1039 10 16.0934 0 0
11:15 pm 23:15 Clear 10 -12.3 7 -14.1 87 87 SE 6 9 30.68 1039 10 16.0934 0 0
11:35 pm 23:35 Clear 10 -12.5 7 -14.1 88 88 SSE 3 6 30.68 1039 10 16.0934 0 0
11:55 pm 23:55 Clear 10 -12.5 7 -14 89 89 SSE 5 7 30.68 1039 10 16.0934 0 0

Powered by AerisWeather